Retour au catalogue

STARLINK-2534

ActifCommunicationsVLEO
NORAD 48311·PAYLOAD·🇺🇸 United States

Lancé Apr 29, 2021 depuis Cape Canaveral Space Force Station

Loading…

Prochains Passages (prochaines 24 heures)

TLE

FraisSource: CelesTrak SupGP

Époque: Sep 15, 2026, 02:34 UTC

1 48311C 21036AM  26258.10743056  .00015532  00000+0  49918-3 0  2585
2 48311  53.1570 287.1530 0001158  93.7315 256.3117 15.31712276    10

Suivez STARLINK-2534 en temps réel avec AllMySat

Download on the App Store